SJV622 WIII-WAOO

Flight info

Callsign SJV622
Flight time N/A
Altitude 35000
Route EGUKO T9 BUTNU
Aircraft A320/M-SDE3FGHIRWY/LB1

Departure

Time N/A
Airport Soekarno-Hatta International Airport (WIII)

Arrival

Time 2026-04-27 12:49
Airport Syamsudin Noor International Airport (WAOO)
Time Latitude Longitude Altitude Speed Heading
2026-04-27 11:58 -3.69805 110.93940 35002 ft 444 kts 64°
2026-04-27 11:58 -3.67131 110.99516 35002 ft 444 kts 64°
2026-04-27 11:59 -3.64441 111.05127 35002 ft 444 kts 64°
2026-04-27 11:59 -3.61746 111.10747 35002 ft 444 kts 64°
2026-04-27 12:00 -3.59067 111.16331 35002 ft 444 kts 64°
2026-04-27 12:00 -3.56388 111.21913 35002 ft 444 kts 64°
2026-04-27 12:01 -3.53705 111.27505 35002 ft 444 kts 64°
2026-04-27 12:01 -3.51034 111.33070 35002 ft 444 kts 64°
2026-04-27 12:02 -3.48346 111.38670 35002 ft 444 kts 64°
2026-04-27 12:02 -3.45660 111.44263 35002 ft 444 kts 64°
2026-04-27 12:03 -3.42997 111.49809 35002 ft 444 kts 64°
2026-04-27 12:03 -3.40303 111.55418 35001 ft 444 kts 64°
2026-04-27 12:04 -3.37621 111.61000 35002 ft 444 kts 64°
2026-04-27 12:04 -3.34951 111.66560 35002 ft 444 kts 64°
2026-04-27 12:05 -3.32269 111.72169 35002 ft 443 kts 64°
2026-04-27 12:05 -3.29609 111.77715 35002 ft 443 kts 64°
2026-04-27 12:06 -3.26931 111.83291 35002 ft 443 kts 64°
2026-04-27 12:06 -3.24249 111.88869 35002 ft 443 kts 64°
2026-04-27 12:07 -3.21557 111.94467 35002 ft 443 kts 64°
2026-04-27 12:07 -3.18876 112.00040 35002 ft 443 kts 64°
2026-04-27 12:08 -3.16217 112.05567 35002 ft 443 kts 64°
2026-04-27 12:08 -3.13534 112.11142 35002 ft 443 kts 64°
2026-04-27 12:09 -3.10858 112.16702 35002 ft 443 kts 64°
2026-04-27 12:09 -3.08178 112.22268 35002 ft 443 kts 64°
2026-04-27 12:10 -3.05510 112.27808 35002 ft 443 kts 64°
2026-04-27 12:10 -3.03015 112.33439 35001 ft 443 kts 68°
2026-04-27 12:11 -3.00734 112.39217 35002 ft 443 kts 68°
2026-04-27 12:11 -2.98480 112.44940 35002 ft 442 kts 68°
2026-04-27 12:12 -2.96217 112.50675 35002 ft 442 kts 68°
2026-04-27 12:12 -2.93959 112.56393 35002 ft 442 kts 68°
2026-04-27 12:13 -2.91695 112.62120 35002 ft 442 kts 68°
2026-04-27 12:13 -2.89418 112.67881 35002 ft 442 kts 68°
2026-04-27 12:14 -2.87148 112.73576 35002 ft 442 kts 68°
2026-04-27 12:14 -2.84868 112.79312 35002 ft 442 kts 68°
2026-04-27 12:15 -2.82606 112.85023 35002 ft 442 kts 68°
2026-04-27 12:15 -2.80330 112.90773 35002 ft 442 kts 68°
2026-04-27 12:16 -2.78066 112.96496 35002 ft 442 kts 68°
2026-04-27 12:16 -2.75803 113.02214 35002 ft 442 kts 68°
2026-04-27 12:17 -2.73530 113.07958 35002 ft 442 kts 68°
2026-04-27 12:17 -2.71270 113.13668 35002 ft 442 kts 68°
2026-04-27 12:18 -2.69002 113.19398 35002 ft 442 kts 68°
2026-04-27 12:18 -2.66733 113.25133 35002 ft 442 kts 68°
2026-04-27 12:19 -2.64465 113.30862 35002 ft 442 kts 68°
2026-04-27 12:19 -2.62752 113.36722 35002 ft 441 kts 81°
2026-04-27 12:20 -2.62472 113.42872 35002 ft 442 kts 95°
2026-04-27 12:20 -2.63683 113.48907 35002 ft 442 kts 109°
2026-04-27 12:21 -2.65814 113.54655 35002 ft 441 kts 111°
2026-04-27 12:21 -2.68014 113.60397 35002 ft 441 kts 111°
2026-04-27 12:22 -2.69802 113.65108 35002 ft 441 kts 110°
2026-04-27 12:22 -2.72323 113.71821 34368 ft 443 kts 110°
2026-04-27 12:22 -2.73409 113.74716 33323 ft 452 kts 110°
2026-04-27 12:23 -2.74525 113.77685 32405 ft 457 kts 110°
2026-04-27 12:23 -2.75642 113.80657 31619 ft 458 kts 110°
2026-04-27 12:23 -2.76769 113.83655 30847 ft 458 kts 110°
2026-04-27 12:23 -2.77881 113.86613 30046 ft 459 kts 110°
2026-04-27 12:24 -2.79005 113.89601 29206 ft 460 kts 110°
2026-04-27 12:24 -2.80130 113.92596 28348 ft 462 kts 110°
2026-04-27 12:24 -2.81263 113.95610 27604 ft 460 kts 110°
2026-04-27 12:24 -2.82390 113.98610 27025 ft 455 kts 110°
2026-04-27 12:25 -2.83500 114.01562 26491 ft 449 kts 110°
2026-04-27 12:25 -2.84596 114.04479 25975 ft 444 kts 110°
2026-04-27 12:25 -2.85663 114.07319 25478 ft 439 kts 110°
2026-04-27 12:25 -2.86740 114.10184 24976 ft 435 kts 110°
2026-04-27 12:26 -2.87804 114.13015 24479 ft 430 kts 110°
2026-04-27 12:26 -2.88854 114.15808 23985 ft 426 kts 110°
2026-04-27 12:26 -2.89898 114.18585 23493 ft 422 kts 110°
2026-04-27 12:26 -2.90927 114.21323 23004 ft 418 kts 110°
2026-04-27 12:27 -2.91938 114.24015 22523 ft 415 kts 110°
2026-04-27 12:27 -2.92965 114.26747 22029 ft 411 kts 110°
2026-04-27 12:27 -2.93967 114.29414 21590 ft 406 kts 110°
2026-04-27 12:27 -2.94939 114.32000 21488 ft 392 kts 110°
2026-04-27 12:28 -2.95888 114.34527 21372 ft 378 kts 110°
2026-04-27 12:28 -2.96794 114.36937 21262 ft 365 kts 110°
2026-04-27 12:28 -2.97679 114.39291 21161 ft 352 kts 110°
2026-04-27 12:28 -2.98526 114.41547 21075 ft 339 kts 110°
2026-04-27 12:29 -2.99338 114.43708 21006 ft 326 kts 110°
2026-04-27 12:29 -3.00124 114.45812 20984 ft 312 kts 110°
2026-04-27 12:29 -3.00789 114.47864 20579 ft 313 kts 105°
2026-04-27 12:29 -3.01340 114.49980 20191 ft 311 kts 104°
2026-04-27 12:30 -3.01866 114.52093 19822 ft 310 kts 104°
2026-04-27 12:30 -3.02385 114.54177 19467 ft 307 kts 104°
2026-04-27 12:30 -3.02900 114.56239 19120 ft 305 kts 104°
2026-04-27 12:30 -3.03417 114.58296 18776 ft 303 kts 104°
2026-04-27 12:31 -3.03932 114.60345 18435 ft 300 kts 104°
2026-04-27 12:31 -3.04440 114.62362 18101 ft 298 kts 104°
2026-04-27 12:31 -3.04944 114.64358 17770 ft 295 kts 104°
2026-04-27 12:31 -3.05449 114.66365 17439 ft 293 kts 104°
2026-04-27 12:32 -3.05941 114.68330 17113 ft 290 kts 104°
2026-04-27 12:32 -3.06432 114.70287 16791 ft 288 kts 104°
2026-04-27 12:32 -3.06919 114.72228 16472 ft 285 kts 104°
2026-04-27 12:32 -3.07465 114.74140 16153 ft 283 kts 111°
2026-04-27 12:33 -3.08342 114.75893 15782 ft 282 kts 123°
2026-04-27 12:33 -3.09501 114.77471 15354 ft 284 kts 128°
2026-04-27 12:33 -3.10740 114.79018 14924 ft 286 kts 129°
2026-04-27 12:33 -3.12013 114.80582 14489 ft 288 kts 129°
2026-04-27 12:34 -3.13269 114.82138 14057 ft 290 kts 129°
2026-04-27 12:34 -3.14540 114.83729 13619 ft 291 kts 128°
2026-04-27 12:34 -3.15807 114.85326 13178 ft 293 kts 128°
2026-04-27 12:34 -3.17060 114.86911 12743 ft 294 kts 128°
2026-04-27 12:35 -3.18347 114.88541 12294 ft 295 kts 128°
2026-04-27 12:35 -3.19622 114.90157 11850 ft 297 kts 128°
2026-04-27 12:35 -3.20902 114.91782 11408 ft 298 kts 128°
2026-04-27 12:35 -3.22180 114.93402 11187 ft 290 kts 128°
2026-04-27 12:36 -3.23398 114.94947 11175 ft 275 kts 128°
2026-04-27 12:36 -3.24541 114.96397 11168 ft 260 kts 128°
2026-04-27 12:36 -3.25657 114.97815 11171 ft 253 kts 128°
2026-04-27 12:36 -3.26752 114.99206 11173 ft 253 kts 128°
2026-04-27 12:37 -3.27822 115.00565 11019 ft 249 kts 128°
2026-04-27 12:37 -3.28905 115.01941 10653 ft 250 kts 128°
2026-04-27 12:37 -3.29991 115.03320 10325 ft 250 kts 128°
2026-04-27 12:37 -3.31073 115.04694 10017 ft 249 kts 128°
2026-04-27 12:38 -3.32176 115.06020 9701 ft 248 kts 139°
2026-04-27 12:38 -3.33687 115.06801 9333 ft 247 kts 172°
2026-04-27 12:38 -3.35385 115.06710 9037 ft 244 kts 191°
2026-04-27 12:38 -3.37033 115.06362 8738 ft 243 kts 192°
2026-04-27 12:39 -3.38683 115.06001 8423 ft 243 kts 192°
2026-04-27 12:39 -3.40352 115.05645 8115 ft 242 kts 192°
2026-04-27 12:39 -3.41982 115.05307 7816 ft 241 kts 191°
2026-04-27 12:39 -3.43629 115.04972 7512 ft 239 kts 191°
2026-04-27 12:40 -3.45257 115.04643 7212 ft 238 kts 191°
2026-04-27 12:40 -3.46884 115.04316 6911 ft 237 kts 191°
2026-04-27 12:40 -3.48498 115.03992 6612 ft 236 kts 191°
2026-04-27 12:40 -3.50124 115.03722 6304 ft 236 kts 179°
2026-04-27 12:41 -3.51668 115.04197 5947 ft 235 kts 142°
2026-04-27 12:41 -3.52679 115.05448 5646 ft 233 kts 111°
2026-04-27 12:41 -3.53066 115.07028 5379 ft 230 kts 99°
2026-04-27 12:41 -3.53295 115.08614 5291 ft 231 kts 92°
2026-04-27 12:42 -3.52990 115.10191 5243 ft 232 kts 61°
2026-04-27 12:42 -3.51926 115.11384 5231 ft 232 kts 30°
2026-04-27 12:42 -3.50409 115.11865 5225 ft 232 kts
2026-04-27 12:42 -3.48854 115.11507 5222 ft 232 kts 329°
2026-04-27 12:43 -3.47697 115.10403 5220 ft 232 kts 298°
2026-04-27 12:43 -3.47261 115.08860 5218 ft 232 kts 268°
2026-04-27 12:43 -3.47673 115.07308 5217 ft 232 kts 238°
2026-04-27 12:43 -3.48577 115.05987 5220 ft 232 kts 238°
2026-04-27 12:44 -3.49175 115.04475 5205 ft 232 kts 265°
2026-04-27 12:44 -3.49091 115.02872 5163 ft 231 kts 278°
2026-04-27 12:44 -3.48840 115.01251 4764 ft 239 kts 279°
2026-04-27 12:44 -3.48546 114.99595 4429 ft 239 kts 280°
2026-04-27 12:45 -3.48244 114.97958 4126 ft 238 kts 281°
2026-04-27 12:45 -3.47941 114.96333 3824 ft 237 kts 281°
2026-04-27 12:45 -3.47639 114.94708 3520 ft 236 kts 281°
2026-04-27 12:45 -3.47337 114.93076 3215 ft 236 kts 281°
2026-04-27 12:46 -3.47041 114.91477 2916 ft 235 kts 280°
2026-04-27 12:46 -3.46743 114.89863 2612 ft 234 kts 280°
2026-04-27 12:46 -3.46454 114.88302 2315 ft 220 kts 280°
2026-04-27 12:46 -3.46184 114.86844 2036 ft 204 kts 280°
2026-04-27 12:47 -3.45933 114.85490 1870 ft 189 kts 281°
2026-04-27 12:47 -3.45704 114.84251 1541 ft 174 kts 280°
2026-04-27 12:47 -3.45496 114.83125 1342 ft 156 kts 280°
2026-04-27 12:47 -3.45307 114.82096 1143 ft 142 kts 280°
2026-04-27 12:48 -3.45129 114.81123 989 ft 141 kts 280°
2026-04-27 12:48 -3.44953 114.80145 674 ft 143 kts 280°
2026-04-27 12:48 -3.44774 114.79182 418 ft 139 kts 281°
2026-04-27 12:48 -3.44596 114.78241 253 ft 139 kts 280°
2026-04-27 12:49 -3.44421 114.77277 109 ft 139 kts 281°
2026-04-27 12:49 -3.44255 114.76377 71 ft 116 kts 280°
2026-04-27 12:49 -3.44138 114.75753 71 ft 66 kts 280°
2026-04-27 12:49 -3.44080 114.75435 71 ft 36 kts 278°
2026-04-27 12:50 -3.44041 114.75256 71 ft 13 kts 301°
2026-04-27 12:50 -3.44014 114.75178 71 ft 9 kts 215°
2026-04-27 12:50 -3.44047 114.75234 71 ft 11 kts 99°
2026-04-27 12:50 -3.44059 114.75323 71 ft 14 kts 100°
2026-04-27 12:51 -3.44080 114.75436 71 ft 18 kts 101°
2026-04-27 12:51 -3.44104 114.75568 71 ft 19 kts 100°
2026-04-27 12:51 -3.44064 114.75671 71 ft 18 kts 15°
2026-04-27 12:51 -3.43951 114.75690 71 ft 15 kts
2026-04-27 12:52 -3.43875 114.75722 71 ft 12 kts 73°
2026-04-27 12:52 -3.43886 114.75808 71 ft 12 kts 98°
2026-04-27 12:52 -3.43900 114.75897 71 ft 13 kts 100°
2026-04-27 12:52 -3.43917 114.75987 70 ft 13 kts 97°
2026-04-27 12:53 -3.43906 114.76045 70 ft 4 kts 22°
2026-04-27 12:53 -3.43874 114.76051 70 ft 5 kts
2026-04-27 12:53 -3.43848 114.76055 70 ft 0 kts 10°